Home > Weather > Garland > Past weeks

Flag for U.S.A. Weather for the Past 2 Weeks in Garland, Texas, U.S.A.

Now
64 °F

Sunny.


Feels Like: 64 °F
Forecast: 42 / 64 °F
Wind: 10 mph from Southeast

Location: Mesquite Metro Airport

Current Time: Feb 13, 2016 at 3:27:19 PM

Latest Report: Feb 13, 2016 at 2:50 PM


Visibility: 10 mi

Pressure: 30.25 "Hg

Humidity: 34%

Dew point: 36 °F

Location of GarlandLocation

Historic Weather in Garland — Graph

°F

Garland Temperature Yesterday

Maximum temperature yesterday: 68 °F (at 2:50 PM)
Minimum temperature yesterday: 43 °F (at 7:50 AM)
Average temperature yesterday: 52 °F

High & Low Weather Summary for the Past Weeks

 TemperatureHumidityPressure
High75 °F (Jan 29, 1:50 PM)100% (Feb 7, 4:15 AM)30.52 "Hg (Feb 7, 4:15 AM)
Low30 °F (Feb 5, 6:50 AM)13% (Feb 8, 5:50 PM)29.54 "Hg (Feb 1, 5:50 PM)
Average50 °F54%30.13 "Hg
* Reported Jan 29 1:50 PM — Feb 13 1:50 PM, Garland, Weather by CustomWeather, © 2016

Note: Actual official high and low records may vary slightly from our data, if they occured in-between our weather recording intervals... More about our weather records

Advertising

Garland Weather History for the Previous 24 Hours

 ConditionsComfort  
Time TempWeatherWind HumidityBarometerVisibility
1:50 PM
Sat, Feb 13
63 °FSunny.9 mph37%30.29 "Hg10 mi
12:50 PM59 °FSunny.12 mph42%30.34 "Hg10 mi
11:50 AM57 °FSunny.12 mph44%30.39 "Hg10 mi
10:50 AM54 °FSunny.13 mph51%30.41 "Hg7 mi
9:50 AM52 °FSunny.14 mph50%30.42 "Hg10 mi
9:23 AM48 °FSunny.14 mph58%30.42 "Hg10 mi
8:50 AM46 °FSunny.8 mph62%30.42 "Hg10 mi
7:50 AM39 °FSunny.6 mph70%30.41 "Hg10 mi
6:50 AM39 °FClear.No wind70%30.42 "Hg10 mi
5:15 AM42 °FClear.7 mph65%30.39 "Hg10 mi
4:55 AM42 °FClear.8 mph65%30.38 "Hg10 mi
4:35 AM42 °FClear.8 mph66%30.37 "Hg10 mi
4:15 AM42 °FClear.7 mph65%30.38 "Hg10 mi
3:55 AM43 °FClear.7 mph63%30.38 "Hg10 mi
3:35 AM44 °FClear.8 mph61%30.38 "Hg10 mi
3:15 AM44 °FClear.8 mph61%30.39 "Hg10 mi
2:55 AM45 °FClear.7 mph60%30.39 "Hg10 mi
2:15 AM46 °FClear.6 mph59%30.39 "Hg10 mi
1:55 AM46 °FClear.9 mph58%30.39 "Hg10 mi
1:35 AM46 °FClear.7 mph58%30.39 "Hg10 mi
1:15 AM47 °FClear.8 mph59%30.38 "Hg10 mi
12:55 AM47 °FClear.8 mph59%30.38 "Hg10 mi
12:35 AM48 °FClear.9 mph57%30.38 "Hg10 mi
12:15 AM48 °FClear.7 mph61%30.37 "Hg10 mi
11:55 PM
Fri, Feb 12
49 °FClear.8 mph57%30.37 "Hg10 mi
11:35 PM49 °FClear.6 mph57%30.37 "Hg10 mi
11:15 PM48 °FClear.8 mph59%30.37 "Hg10 mi
10:55 PM51 °FClear.5 mph53%30.37 "Hg10 mi
10:35 PM50 °FClear.6 mph57%30.36 "Hg10 mi
10:15 PM51 °FClear.6 mph56%30.35 "Hg10 mi
9:55 PM53 °FClear.3 mph54%30.35 "Hg10 mi
9:35 PM55 °FClear.3 mph49%30.34 "Hg10 mi
9:15 PM54 °FClear.3 mph57%30.34 "Hg10 mi
8:15 PM56 °FClear.3 mph54%30.32 "Hg10 mi
7:35 PM57 °FClear.3 mph51%30.32 "Hg10 mi
7:10 PM56 °FClear.3 mph51%30.31 "Hg10 mi
6:50 PM57 °FClear.3 mph48%30.31 "Hg10 mi
5:50 PM63 °FSunny.5 mph39%30.29 "Hg10 mi
4:50 PM66 °FSunny.10 mph32%30.27 "Hg10 mi
3:50 PM68 °FMild.N/A30%30.26 "HgN/A
Weather by CustomWeather, © 2016

See weather overviewHow to use our weather pages